Time,TemperatureF,DewpointF,PressureIn,WindDirection,WindDirectionDegrees,WindSpeedMPH,WindSpeedGustMPH,Humidity,HourlyPrecipIn,Conditions,Clouds,dailyrainin,SoftwareType,DateUTC
2013-02-04 00:00:00,16.8,12.5,30.09,WNW,289,6.0,11.0,83,0.00,,---,0.00,VWS V14.00,2013-02-04 05:00:00,
2013-02-04 00:01:00,16.8,12.5,30.09,WSW,252,3.0,6.0,83,0.00,,---,0.00,VWS V14.00,2013-02-04 05:01:00,
2013-02-04 00:03:00,16.8,12.5,30.09,WSW,248,2.0,10.0,83,0.00,,---,0.00,VWS V14.00,2013-02-04 05:03:00,
2013-02-04 00:07:00,16.8,12.5,30.09,WSW,247,4.0,10.0,83,0.00,,---,0.00,VWS V14.00,2013-02-04 05:07:00,
2013-02-04 00:12:00,16.8,12.5,30.09,WSW,240,0.0,10.0,83,0.00,,---,0.00,VWS V14.00,2013-02-04 05:12:00,
2013-02-04 00:17:00,16.8,12.8,30.09,WSW,242,2.0,10.0,84,0.00,,---,0.00,VWS V14.00,2013-02-04 05:17:00,
2013-02-04 00:22:00,16.8,12.8,30.09,WSW,246,2.0,10.0,84,0.00,,---,0.00,VWS V14.00,2013-02-04 05:22:00,
2013-02-04 00:27:00,16.7,12.7,30.09,West,263,3.0,10.0,84,0.00,,---,0.00,VWS V14.00,2013-02-04 05:27:00,
2013-02-04 00:32:00,16.7,12.7,30.09,West,259,0.0,7.0,84,0.00,,---,0.00,VWS V14.00,2013-02-04 05:32:00,
2013-02-04 00:37:00,16.6,12.6,30.09,WSW,258,0.0,7.0,84,0.00,,---,0.00,VWS V14.00,2013-02-04 05:37:00,
2013-02-04 00:42:00,16.4,12.4,30.09,WSW,255,0.0,7.0,84,0.00,,---,0.00,VWS V14.00,2013-02-04 05:42:00,
2013-02-04 00:47:00,16.3,12.3,30.09,West,263,1.0,7.0,84,0.00,,---,0.00,VWS V14.00,2013-02-04 05:47:00,
2013-02-04 00:52:00,16.1,12.1,30.09,SW,219,2.0,7.0,84,0.00,,---,0.00,VWS V14.00,2013-02-04 05:52:00,
2013-02-04 00:57:00,16.1,12.1,30.08,WSW,258,3.0,7.0,84,0.00,,---,0.00,VWS V14.00,2013-02-04 05:57:00,
2013-02-04 01:02:00,16.0,12.3,30.08,WSW,243,5.0,6.0,85,0.00,,---,0.00,VWS V14.00,2013-02-04 06:02:00,
2013-02-04 01:07:00,15.9,12.2,30.09,West,261,0.0,6.0,85,0.00,,---,0.00,VWS V14.00,2013-02-04 06:07:00,
2013-02-04 01:12:00,15.9,12.2,30.08,WSW,248,2.0,6.0,85,0.00,,---,0.00,VWS V14.00,2013-02-04 06:12:00,
2013-02-04 01:18:00,15.9,12.2,30.08,WSW,238,5.0,6.0,85,0.00,,---,0.00,VWS V14.00,2013-02-04 06:18:00,
2013-02-04 01:23:00,15.9,12.2,30.09,West,273,2.0,7.0,85,0.00,,---,0.00,VWS V14.00,2013-02-04 06:23:00,
2013-02-04 01:28:00,16.0,12.3,30.09,WSW,237,2.0,10.0,85,0.00,,---,0.00,VWS V14.00,2013-02-04 06:28:00,
2013-02-04 01:33:00,15.9,12.2,30.08,WSW,237,0.0,2.0,85,0.00,,---,0.00,VWS V14.00,2013-02-04 06:33:00,
2013-02-04 01:38:00,15.8,11.8,30.08,WSW,237,0.0,3.0,84,0.00,,---,0.00,VWS V14.00,2013-02-04 06:38:00,
2013-02-04 01:43:00,15.7,12.0,30.08,WSW,237,1.0,3.0,85,0.00,,---,0.00,VWS V14.00,2013-02-04 06:43:00,
2013-02-04 01:48:00,15.5,11.8,30.08,WSW,237,1.0,3.0,85,0.00,,---,0.00,VWS V14.00,2013-02-04 06:48:00,
2013-02-04 01:53:00,15.5,11.8,30.08,WSW,237,0.0,4.0,85,0.00,,---,0.00,VWS V14.00,2013-02-04 06:53:00,
2013-02-04 01:58:00,15.4,11.7,30.08,WSW,238,0.0,4.0,85,0.00,,---,0.00,VWS V14.00,2013-02-04 06:58:00,
2013-02-04 02:03:00,15.3,11.6,30.08,SW,236,2.0,4.0,85,0.00,,---,0.00,VWS V14.00,2013-02-04 07:03:00,
2013-02-04 02:08:00,15.3,11.6,30.08,WSW,254,0.0,4.0,85,0.00,,---,0.00,VWS V14.00,2013-02-04 07:08:00,
2013-02-04 02:13:00,15.2,11.8,30.09,SW,230,0.0,8.0,86,0.00,,---,0.00,VWS V14.00,2013-02-04 07:13:00,
2013-02-04 02:18:00,15.2,11.8,30.09,WSW,246,1.0,8.0,86,0.00,,---,0.00,VWS V14.00,2013-02-04 07:18:00,
2013-02-04 02:23:00,15.1,11.7,30.08,WSW,246,3.0,8.0,86,0.00,,---,0.00,VWS V14.00,2013-02-04 07:23:00,
2013-02-04 02:28:00,15.0,11.6,30.08,WSW,242,0.0,8.0,86,0.00,,---,0.00,VWS V14.00,2013-02-04 07:28:00,
2013-02-04 02:33:00,15.1,11.9,30.08,West,269,2.0,5.0,87,0.00,,---,0.00,VWS V14.00,2013-02-04 07:33:00,
2013-02-04 02:38:00,15.2,12.0,30.08,West,259,2.0,5.0,87,0.00,,---,0.00,VWS V14.00,2013-02-04 07:38:00,
2013-02-04 02:44:00,15.3,12.1,30.08,WSW,239,3.0,5.0,87,0.00,,---,0.00,VWS V14.00,2013-02-04 07:44:00,
2013-02-04 02:49:00,15.3,12.1,30.08,WSW,240,3.0,6.0,87,0.00,,---,0.00,VWS V14.00,2013-02-04 07:49:00,
2013-02-04 02:54:00,15.4,12.5,30.08,WSW,240,0.0,6.0,88,0.00,,---,0.00,VWS V14.00,2013-02-04 07:54:00,
2013-02-04 02:59:00,15.5,12.6,30.07,SW,235,1.0,6.0,88,0.00,,---,0.00,VWS V14.00,2013-02-04 07:59:00,
2013-02-04 03:04:00,15.7,12.8,30.07,WSW,254,0.0,5.0,88,0.00,,---,0.00,VWS V14.00,2013-02-04 08:04:00,
2013-02-04 03:09:00,15.8,12.9,30.08,WSW,254,0.0,5.0,88,0.00,,---,0.00,VWS V14.00,2013-02-04 08:09:00,
2013-02-04 03:14:00,15.9,13.0,30.08,WSW,241,1.0,5.0,88,0.00,,---,0.00,VWS V14.00,2013-02-04 08:14:00,
2013-02-04 03:19:00,16.0,13.1,30.08,WSW,244,2.0,5.0,88,0.00,,---,0.00,VWS V14.00,2013-02-04 08:19:00,
2013-02-04 03:24:00,16.1,13.2,30.08,WSW,245,0.0,5.0,88,0.00,,---,0.00,VWS V14.00,2013-02-04 08:24:00,
2013-02-04 03:29:00,16.1,13.2,30.08,WSW,238,2.0,5.0,88,0.00,,---,0.00,VWS V14.00,2013-02-04 08:29:00,
2013-02-04 03:34:00,16.2,13.5,30.08,West,277,5.0,5.0,89,0.00,,---,0.00,VWS V14.00,2013-02-04 08:34:00,
2013-02-04 03:39:00,16.3,13.6,30.07,WSW,254,1.0,7.0,89,0.00,,---,0.00,VWS V14.00,2013-02-04 08:39:00,
2013-02-04 03:44:00,16.4,13.7,30.07,WSW,246,0.0,7.0,89,0.00,,---,0.00,VWS V14.00,2013-02-04 08:44:00,
2013-02-04 03:49:00,16.4,13.7,30.07,WSW,243,0.0,7.0,89,0.00,,---,0.00,VWS V14.00,2013-02-04 08:49:00,
2013-02-04 03:54:00,16.5,13.8,30.07,WSW,244,0.0,7.0,89,0.00,,---,0.00,VWS V14.00,2013-02-04 08:54:00,
2013-02-04 03:59:00,16.6,13.9,30.07,WSW,244,2.0,7.0,89,0.00,,---,0.00,VWS V14.00,2013-02-04 08:59:00,
2013-02-04 04:04:00,16.6,13.9,30.07,WSW,244,0.0,3.0,89,0.00,,---,0.00,VWS V14.00,2013-02-04 09:04:00,
2013-02-04 04:09:00,16.6,13.9,30.07,WSW,245,0.0,3.0,89,0.00,,---,0.00,VWS V14.00,2013-02-04 09:09:00,
2013-02-04 04:14:00,16.7,14.0,30.06,WSW,244,0.0,3.0,89,0.00,,---,0.00,VWS V14.00,2013-02-04 09:14:00,
2013-02-04 04:19:00,16.7,14.0,30.06,WSW,245,0.0,3.0,89,0.00,,---,0.00,VWS V14.00,2013-02-04 09:19:00,
2013-02-04 04:24:00,16.7,14.0,30.06,WSW,244,0.0,3.0,89,0.00,,---,0.00,VWS V14.00,2013-02-04 09:24:00,
2013-02-04 04:29:00,16.7,14.0,30.06,WSW,238,0.0,4.0,89,0.00,,---,0.00,VWS V14.00,2013-02-04 09:29:00,
2013-02-04 04:35:00,16.7,14.0,30.06,WSW,238,1.0,2.0,89,0.00,,---,0.00,VWS V14.00,2013-02-04 09:35:00,
2013-02-04 04:40:00,16.7,14.0,30.06,WSW,238,0.0,2.0,89,0.00,,---,0.00,VWS V14.00,2013-02-04 09:40:00,
2013-02-04 04:45:00,16.7,14.0,30.06,WSW,240,0.0,5.0,89,0.00,,---,0.00,VWS V14.00,2013-02-04 09:45:00,
2013-02-04 04:50:00,16.8,14.4,30.06,WSW,240,0.0,5.0,90,0.00,,---,0.00,VWS V14.00,2013-02-04 09:50:00,
2013-02-04 04:55:00,16.8,14.4,30.06,WSW,240,0.0,5.0,90,0.00,,---,0.00,VWS V14.00,2013-02-04 09:55:00,
2013-02-04 05:00:00,16.9,14.5,30.05,WSW,240,0.0,0.0,90,0.00,,---,0.00,VWS V14.00,2013-02-04 10:00:00,
2013-02-04 05:05:00,16.9,14.5,30.05,WSW,240,0.0,0.0,90,0.00,,---,0.00,VWS V14.00,2013-02-04 10:05:00,
2013-02-04 05:10:00,17.0,14.6,30.04,WSW,240,0.0,0.0,90,0.00,,---,0.00,VWS V14.00,2013-02-04 10:10:00,
2013-02-04 05:15:00,17.0,14.6,30.04,WSW,240,0.0,0.0,90,0.00,,---,0.00,VWS V14.00,2013-02-04 10:15:00,
2013-02-04 05:20:00,17.1,14.7,30.04,WSW,239,0.0,1.0,90,0.00,,---,0.00,VWS V14.00,2013-02-04 10:20:00,
2013-02-04 05:25:00,17.2,14.8,30.03,WSW,240,0.0,1.0,90,0.00,,---,0.00,VWS V14.00,2013-02-04 10:25:00,
2013-02-04 05:30:00,17.3,14.9,30.03,WSW,240,0.0,0.0,90,0.00,,---,0.00,VWS V14.00,2013-02-04 10:30:00,
2013-02-04 05:35:00,17.3,14.9,30.03,WSW,240,0.0,0.0,90,0.00,,---,0.00,VWS V14.00,2013-02-04 10:35:00,
2013-02-04 05:40:00,17.5,15.1,30.03,WSW,239,0.0,0.0,90,0.00,,---,0.00,VWS V14.00,2013-02-04 10:40:00,
2013-02-04 05:45:00,17.5,15.1,30.03,WSW,240,0.0,1.0,90,0.00,,---,0.00,VWS V14.00,2013-02-04 10:45:00,
2013-02-04 05:50:00,17.6,15.2,30.03,WSW,239,0.0,1.0,90,0.00,,---,0.00,VWS V14.00,2013-02-04 10:50:00,
2013-02-04 05:55:00,17.7,15.3,30.03,WSW,240,0.0,1.0,90,0.00,,---,0.00,VWS V14.00,2013-02-04 10:55:00,
2013-02-04 06:01:00,17.8,15.4,30.03,WSW,239,0.0,0.0,90,0.00,,---,0.00,VWS V14.00,2013-02-04 11:01:00,
2013-02-04 06:06:00,17.8,15.4,30.02,WSW,240,0.0,0.0,90,0.00,,---,0.00,VWS V14.00,2013-02-04 11:06:00,
2013-02-04 06:11:00,17.9,15.5,30.02,WSW,239,0.0,0.0,90,0.00,,---,0.00,VWS V14.00,2013-02-04 11:11:00,
2013-02-04 06:16:00,18.0,15.6,30.02,WSW,240,0.0,0.0,90,0.00,,---,0.00,VWS V14.00,2013-02-04 11:16:00,
2013-02-04 06:21:00,18.0,15.6,30.02,WSW,240,0.0,0.0,90,0.00,,---,0.00,VWS V14.00,2013-02-04 11:21:00,
2013-02-04 06:26:00,18.1,15.7,30.02,WSW,240,0.0,0.0,90,0.00,,---,0.00,VWS V14.00,2013-02-04 11:26:00,
2013-02-04 06:31:00,18.2,15.8,30.02,WSW,239,0.0,2.0,90,0.00,,---,0.00,VWS V14.00,2013-02-04 11:31:00,
2013-02-04 06:36:00,18.2,15.8,30.01,WSW,239,0.0,2.0,90,0.00,,---,0.00,VWS V14.00,2013-02-04 11:36:00,
2013-02-04 06:41:00,18.2,15.8,30.01,WSW,239,1.0,2.0,90,0.00,,---,0.00,VWS V14.00,2013-02-04 11:41:00,
2013-02-04 06:46:00,18.3,15.9,30.01,WSW,240,0.0,2.0,90,0.00,,---,0.00,VWS V14.00,2013-02-04 11:46:00,
2013-02-04 06:51:00,18.3,15.9,30.01,WSW,240,0.0,2.0,90,0.00,,---,0.00,VWS V14.00,2013-02-04 11:51:00,
2013-02-04 06:56:00,18.3,15.9,30.00,WSW,239,0.0,2.0,90,0.00,,---,0.00,VWS V14.00,2013-02-04 11:56:00,
2013-02-04 07:02:00,18.4,16.0,30.01,WSW,240,0.0,2.0,90,0.00,,---,0.00,VWS V14.00,2013-02-04 12:02:00,
2013-02-04 07:07:00,18.4,16.0,30.00,WSW,240,0.0,2.0,90,0.00,,---,0.00,VWS V14.00,2013-02-04 12:07:00,
2013-02-04 07:12:00,18.5,16.1,30.01,WSW,240,0.0,2.0,90,0.00,,---,0.00,VWS V14.00,2013-02-04 12:12:00,
2013-02-04 07:17:00,18.5,16.1,30.01,WSW,240,0.0,2.0,90,0.00,,---,0.00,VWS V14.00,2013-02-04 12:17:00,
2013-02-04 07:22:00,18.5,16.1,30.00,WSW,240,0.0,2.0,90,0.00,,---,0.00,VWS V14.00,2013-02-04 12:22:00,
2013-02-04 07:27:00,18.6,16.2,30.00,WSW,240,0.0,2.0,90,0.00,,---,0.00,VWS V14.00,2013-02-04 12:27:00,
2013-02-04 07:32:00,18.6,16.2,30.00,WSW,239,0.0,0.0,90,0.00,,---,0.00,VWS V14.00,2013-02-04 12:32:00,
2013-02-04 07:37:00,18.7,16.5,30.00,WSW,237,0.0,2.0,91,0.00,,---,0.00,VWS V14.00,2013-02-04 12:37:00,
2013-02-04 07:42:00,18.7,16.3,30.00,WSW,237,0.0,2.0,90,0.00,,---,0.00,VWS V14.00,2013-02-04 12:42:00,
2013-02-04 07:47:00,18.7,16.3,30.01,SW,236,0.0,2.0,90,0.00,,---,0.00,VWS V14.00,2013-02-04 12:47:00,
2013-02-04 07:52:00,18.7,16.3,30.01,SW,236,0.0,2.0,90,0.00,,---,0.00,VWS V14.00,2013-02-04 12:52:00,
2013-02-04 07:57:00,18.8,16.6,30.00,SW,234,0.0,2.0,91,0.00,,---,0.00,VWS V14.00,2013-02-04 12:57:00,
2013-02-04 08:02:00,18.8,16.6,30.00,SW,234,0.0,0.0,91,0.00,,---,0.00,VWS V14.00,2013-02-04 13:02:00,
2013-02-04 08:07:00,18.8,16.6,30.00,SW,234,0.0,2.0,91,0.00,,---,0.00,VWS V14.00,2013-02-04 13:07:00,
2013-02-04 08:12:00,18.7,16.5,30.00,SE,137,0.0,4.0,91,0.00,,---,0.00,VWS V14.00,2013-02-04 13:12:00,
2013-02-04 08:17:00,18.8,16.6,30.01,SE,136,0.0,4.0,91,0.00,,---,0.00,VWS V14.00,2013-02-04 13:17:00,
2013-02-04 08:23:00,18.8,16.6,30.01,SE,137,0.0,4.0,91,0.00,,---,0.00,VWS V14.00,2013-02-04 13:23:00,
2013-02-04 08:28:00,18.8,16.6,30.01,SE,138,0.0,4.0,91,0.00,,---,0.00,VWS V14.00,2013-02-04 13:28:00,
2013-02-04 08:33:00,18.9,16.7,30.02,SE,137,0.0,0.0,91,0.00,,---,0.00,VWS V14.00,2013-02-04 13:33:00,
2013-02-04 08:38:00,18.9,16.7,30.01,SE,138,0.0,0.0,91,0.00,,---,0.00,VWS V14.00,2013-02-04 13:38:00,
2013-02-04 08:43:00,19.0,16.8,30.01,SE,137,1.0,2.0,91,0.00,,---,0.00,VWS V14.00,2013-02-04 13:43:00,
2013-02-04 08:48:00,19.0,16.8,30.01,SE,138,0.0,2.0,91,0.00,,---,0.00,VWS V14.00,2013-02-04 13:48:00,
2013-02-04 08:53:00,19.1,16.9,30.01,SE,137,0.0,4.0,91,0.00,,---,0.00,VWS V14.00,2013-02-04 13:53:00,
2013-02-04 08:58:00,19.2,17.0,30.01,SE,137,0.0,4.0,91,0.00,,---,0.00,VWS V14.00,2013-02-04 13:58:00,
2013-02-04 09:03:00,19.3,17.1,30.01,SE,136,0.0,0.0,91,0.00,,---,0.00,VWS V14.00,2013-02-04 14:03:00,
2013-02-04 09:08:00,19.4,17.2,30.01,SE,135,0.0,1.0,91,0.00,,---,0.00,VWS V14.00,2013-02-04 14:08:00,
2013-02-04 09:13:00,19.5,17.3,30.01,SE,136,1.0,1.0,91,0.00,,---,0.00,VWS V14.00,2013-02-04 14:13:00,
2013-02-04 09:18:00,19.6,17.4,30.01,SE,136,0.0,2.0,91,0.00,,---,0.00,VWS V14.00,2013-02-04 14:18:00,
2013-02-04 09:23:00,19.7,17.5,30.01,SE,130,0.0,2.0,91,0.00,,---,0.00,VWS V14.00,2013-02-04 14:23:00,
2013-02-04 09:28:00,19.8,17.6,30.01,SE,130,0.0,2.0,91,0.00,,---,0.00,VWS V14.00,2013-02-04 14:28:00,
2013-02-04 09:33:00,19.9,17.7,30.01,SE,130,0.0,1.0,91,0.00,,---,0.00,VWS V14.00,2013-02-04 14:33:00,
2013-02-04 09:38:00,20.1,17.9,30.00,SE,130,0.0,2.0,91,0.00,,---,0.00,VWS V14.00,2013-02-04 14:38:00,
2013-02-04 09:43:00,20.2,18.0,30.00,ESE,121,0.0,2.0,91,0.00,,---,0.00,VWS V14.00,2013-02-04 14:43:00,
2013-02-04 09:48:00,20.3,17.8,30.00,ESE,121,0.0,4.0,90,0.00,,---,0.00,VWS V14.00,2013-02-04 14:48:00,
2013-02-04 09:53:00,20.4,17.9,30.00,ESE,120,0.0,4.0,90,0.00,,---,0.00,VWS V14.00,2013-02-04 14:53:00,
2013-02-04 09:58:00,20.5,18.3,29.99,ESE,121,0.0,4.0,91,0.00,,---,0.00,VWS V14.00,2013-02-04 14:58:00,
2013-02-04 10:04:00,20.7,18.2,29.99,ESE,121,0.0,4.0,90,0.00,,---,0.00,VWS V14.00,2013-02-04 15:04:00,
2013-02-04 10:09:00,20.9,18.4,29.99,ESE,121,0.0,4.0,90,0.00,,---,0.00,VWS V14.00,2013-02-04 15:09:00,
2013-02-04 10:14:00,21.2,18.7,29.99,ESE,113,1.0,4.0,90,0.00,,---,0.00,VWS V14.00,2013-02-04 15:14:00,
2013-02-04 10:19:00,21.5,19.0,29.98,SE,128,2.0,5.0,90,0.00,,---,0.00,VWS V14.00,2013-02-04 15:19:00,
2013-02-04 10:24:00,21.6,19.1,29.99,SE,126,2.0,5.0,90,0.00,,---,0.00,VWS V14.00,2013-02-04 15:24:00,
2013-02-04 10:29:00,21.8,19.3,29.98,SE,133,0.0,6.0,90,0.00,,---,0.00,VWS V14.00,2013-02-04 15:29:00,
2013-02-04 10:34:00,22.0,19.5,29.97,ESE,115,0.0,5.0,90,0.00,,---,0.00,VWS V14.00,2013-02-04 15:34:00,
2013-02-04 10:39:00,22.1,19.6,29.97,ESE,115,2.0,5.0,90,0.00,,---,0.00,VWS V14.00,2013-02-04 15:39:00,
2013-02-04 10:44:00,22.2,19.5,29.97,SSE,148,0.0,5.0,89,0.00,,---,0.00,VWS V14.00,2013-02-04 15:44:00,
2013-02-04 10:49:00,22.4,19.7,29.97,SE,124,4.0,5.0,89,0.00,,---,0.00,VWS V14.00,2013-02-04 15:49:00,
2013-02-04 10:54:00,22.5,19.8,29.97,ESE,107,1.0,5.0,89,0.00,,---,0.00,VWS V14.00,2013-02-04 15:54:00,
2013-02-04 10:59:00,22.6,19.9,29.97,ESE,105,1.0,5.0,89,0.00,,---,0.00,VWS V14.00,2013-02-04 15:59:00,
2013-02-04 11:04:00,22.7,20.0,29.97,ESE,104,2.0,2.0,89,0.00,,---,0.00,VWS V14.00,2013-02-04 16:04:00,
2013-02-04 11:09:00,22.9,20.1,29.96,ESE,114,4.0,6.0,89,0.00,,---,0.00,VWS V14.00,2013-02-04 16:09:00,
2013-02-04 11:14:00,23.0,20.2,29.96,ESE,103,2.0,6.0,89,0.00,,---,0.00,VWS V14.00,2013-02-04 16:14:00,
2013-02-04 11:19:00,23.1,20.4,29.96,ESE,105,1.0,6.0,89,0.00,,---,0.00,VWS V14.00,2013-02-04 16:19:00,
2013-02-04 11:24:00,23.2,20.5,29.95,ENE,75,1.0,6.0,89,0.00,,---,0.00,VWS V14.00,2013-02-04 16:24:00,
2013-02-04 11:29:00,23.3,20.5,29.96,ESE,113,4.0,6.0,89,0.00,,---,0.00,VWS V14.00,2013-02-04 16:29:00,
2013-02-04 11:34:00,23.4,20.4,29.95,ESE,105,0.0,6.0,88,0.00,,---,0.00,VWS V14.00,2013-02-04 16:34:00,
2013-02-04 11:39:00,23.4,20.4,29.96,ESE,114,1.0,6.0,88,0.00,,---,0.00,VWS V14.00,2013-02-04 16:39:00,
2013-02-04 11:44:00,23.5,20.5,29.96,ESE,103,1.0,6.0,88,0.00,,---,0.00,VWS V14.00,2013-02-04 16:44:00,
2013-02-04 11:49:00,23.5,20.5,29.95,ESE,115,1.0,6.0,88,0.00,,---,0.00,VWS V14.00,2013-02-04 16:49:00,
2013-02-04 11:55:00,23.6,20.6,29.95,ESE,111,5.0,7.0,88,0.00,,---,0.00,VWS V14.00,2013-02-04 16:55:00,
2013-02-04 12:00:00,23.7,20.7,29.95,ESE,117,1.0,7.0,88,0.00,,---,0.00,VWS V14.00,2013-02-04 17:00:00,
2013-02-04 12:05:00,23.8,20.8,29.94,ESE,122,1.0,6.0,88,0.00,,---,0.00,VWS V14.00,2013-02-04 17:05:00,
2013-02-04 12:10:00,24.0,21.0,29.94,East,88,1.0,6.0,88,0.00,,---,0.00,VWS V14.00,2013-02-04 17:10:00,
2013-02-04 12:15:00,24.1,21.1,29.94,SE,144,1.0,6.0,88,0.00,,---,0.00,VWS V14.00,2013-02-04 17:15:00,
2013-02-04 12:20:00,24.2,21.2,29.94,ESE,103,2.0,6.0,88,0.00,,---,0.00,VWS V14.00,2013-02-04 17:20:00,
2013-02-04 12:25:00,24.3,21.0,29.93,ESE,115,2.0,6.0,87,0.00,,---,0.00,VWS V14.00,2013-02-04 17:25:00,
2013-02-04 12:30:00,24.3,21.0,29.93,SE,144,5.0,6.0,87,0.00,,---,0.00,VWS V14.00,2013-02-04 17:30:00,
2013-02-04 12:35:00,24.4,21.1,29.93,ESE,116,1.0,6.0,87,0.00,,---,0.00,VWS V14.00,2013-02-04 17:35:00,
2013-02-04 12:40:00,24.4,21.1,29.92,ESE,119,5.0,6.0,87,0.00,,---,0.00,VWS V14.00,2013-02-04 17:40:00,
2013-02-04 12:45:00,24.4,21.1,29.92,SE,134,1.0,6.0,87,0.00,,---,0.00,VWS V14.00,2013-02-04 17:45:00,
2013-02-04 12:50:00,24.4,21.1,29.92,East,86,0.0,6.0,87,0.00,,---,0.00,VWS V14.00,2013-02-04 17:50:00,
2013-02-04 12:55:00,24.3,21.0,29.92,ESE,114,2.0,6.0,87,0.00,,---,0.00,VWS V14.00,2013-02-04 17:55:00,
2013-02-04 13:00:00,24.2,20.9,29.92,SE,134,2.0,5.0,87,0.00,,---,0.00,VWS V14.00,2013-02-04 18:00:00,
2013-02-04 13:05:00,24.3,21.3,29.91,ESE,113,4.0,5.0,88,0.00,,---,0.00,VWS V14.00,2013-02-04 18:05:00,
2013-02-04 13:10:00,24.4,21.4,29.91,ESE,118,2.0,5.0,88,0.00,,---,0.00,VWS V14.00,2013-02-04 18:10:00,
2013-02-04 13:15:00,24.4,21.1,29.91,SE,126,4.0,7.0,87,0.00,,---,0.00,VWS V14.00,2013-02-04 18:15:00,
2013-02-04 13:20:00,24.3,21.0,29.91,SE,128,1.0,7.0,87,0.00,,---,0.00,VWS V14.00,2013-02-04 18:20:00,
2013-02-04 13:25:00,24.3,21.0,29.91,ESE,117,2.0,7.0,87,0.00,,---,0.00,VWS V14.00,2013-02-04 18:25:00,
2013-02-04 13:30:00,24.2,21.2,29.91,SSE,155,4.0,4.0,88,0.00,,---,0.00,VWS V14.00,2013-02-04 18:30:00,
2013-02-04 13:36:00,24.2,20.9,29.90,ESE,121,4.0,6.0,87,0.00,,---,0.00,VWS V14.00,2013-02-04 18:36:00,
2013-02-04 13:41:00,24.2,21.2,29.90,SE,128,0.0,7.0,88,0.00,,---,0.00,VWS V14.00,2013-02-04 18:41:00,
2013-02-04 13:46:00,24.4,21.4,29.90,SE,132,2.0,7.0,88,0.00,,---,0.00,VWS V14.00,2013-02-04 18:46:00,
2013-02-04 13:51:00,24.4,21.4,29.89,SSE,150,4.0,7.0,88,0.00,,---,0.00,VWS V14.00,2013-02-04 18:51:00,
2013-02-04 13:56:00,24.4,21.1,29.89,SSE,148,4.0,7.0,87,0.00,,---,0.00,VWS V14.00,2013-02-04 18:56:00,
2013-02-04 14:01:00,24.4,21.1,29.89,SSE,159,4.0,6.0,87,0.00,,---,0.00,VWS V14.00,2013-02-04 19:01:00,
2013-02-04 14:06:00,24.4,21.1,29.89,SE,137,0.0,8.0,87,0.00,,---,0.00,VWS V14.00,2013-02-04 19:06:00,
2013-02-04 14:11:00,24.4,21.1,29.89,SE,132,0.0,8.0,87,0.00,,---,0.00,VWS V14.00,2013-02-04 19:11:00,
2013-02-04 14:16:00,24.3,21.0,29.89,SE,136,2.0,8.0,87,0.00,,---,0.00,VWS V14.00,2013-02-04 19:16:00,
2013-02-04 14:21:00,24.3,21.0,29.89,SE,134,0.0,8.0,87,0.00,,---,0.00,VWS V14.00,2013-02-04 19:21:00,
2013-02-04 14:26:00,24.3,21.0,29.89,East,101,4.0,8.0,87,0.00,,---,0.00,VWS V14.00,2013-02-04 19:26:00,
2013-02-04 14:31:00,24.3,21.0,29.89,East,94,2.0,5.0,87,0.00,,---,0.00,VWS V14.00,2013-02-04 19:31:00,
2013-02-04 14:36:00,24.2,20.9,29.89,SE,137,2.0,5.0,87,0.00,,---,0.00,VWS V14.00,2013-02-04 19:36:00,
2013-02-04 14:41:00,24.3,21.0,29.89,SE,130,2.0,5.0,87,0.00,,---,0.00,VWS V14.00,2013-02-04 19:41:00,
2013-02-04 14:46:00,24.3,21.0,29.89,SE,140,0.0,6.0,87,0.00,,---,0.00,VWS V14.00,2013-02-04 19:46:00,
2013-02-04 14:51:00,24.4,21.1,29.89,ESE,123,1.0,6.0,87,0.00,,---,0.00,VWS V14.00,2013-02-04 19:51:00,
2013-02-04 14:57:00,24.4,21.1,29.89,SE,129,0.0,6.0,87,0.00,,---,0.00,VWS V14.00,2013-02-04 19:57:00,
2013-02-04 15:02:00,24.4,21.1,29.89,ESE,123,5.0,5.0,87,0.00,,---,0.00,VWS V14.00,2013-02-04 20:02:00,
2013-02-04 15:07:00,24.4,21.1,29.89,ESE,119,1.0,5.0,87,0.00,,---,0.00,VWS V14.00,2013-02-04 20:07:00,
2013-02-04 15:12:00,24.4,21.1,29.89,ESE,119,4.0,5.0,87,0.00,,---,0.00,VWS V14.00,2013-02-04 20:12:00,
2013-02-04 15:17:00,24.4,21.1,29.89,SE,134,0.0,5.0,87,0.00,,---,0.00,VWS V14.00,2013-02-04 20:17:00,
2013-02-04 15:22:00,24.4,21.1,29.89,SE,140,0.0,5.0,87,0.00,,---,0.00,VWS V14.00,2013-02-04 20:22:00,
2013-02-04 15:27:00,24.5,21.2,29.89,SE,140,1.0,5.0,87,0.00,,---,0.00,VWS V14.00,2013-02-04 20:27:00,
2013-02-04 15:32:00,24.6,21.3,29.89,ESE,119,0.0,1.0,87,0.00,,---,0.00,VWS V14.00,2013-02-04 20:32:00,
2013-02-04 15:37:00,24.5,21.2,29.89,ENE,74,1.0,3.0,87,0.00,,---,0.00,VWS V14.00,2013-02-04 20:37:00,
2013-02-04 15:42:00,24.5,21.2,29.89,East,87,0.0,3.0,87,0.00,,---,0.00,VWS V14.00,2013-02-04 20:42:00,
2013-02-04 15:47:00,24.5,21.5,29.88,ESE,109,2.0,4.0,88,0.00,,---,0.00,VWS V14.00,2013-02-04 20:47:00,
2013-02-04 15:52:00,24.5,21.5,29.89,ENE,67,0.0,4.0,88,0.00,,---,0.00,VWS V14.00,2013-02-04 20:52:00,
2013-02-04 15:57:00,24.4,21.4,29.89,East,92,1.0,4.0,88,0.00,,---,0.00,VWS V14.00,2013-02-04 20:57:00,
2013-02-04 16:02:00,24.5,21.7,29.89,East,94,0.0,1.0,89,0.00,,---,0.00,VWS V14.00,2013-02-04 21:02:00,
2013-02-04 16:07:00,24.5,21.7,29.89,ESE,118,4.0,5.0,89,0.00,,---,0.00,VWS V14.00,2013-02-04 21:07:00,
2013-02-04 16:12:00,24.5,21.7,29.89,ESE,115,1.0,5.0,89,0.00,,---,0.00,VWS V14.00,2013-02-04 21:12:00,
2013-02-04 16:18:00,24.4,21.6,29.89,SE,132,0.0,5.0,89,0.00,,---,0.00,VWS V14.00,2013-02-04 21:18:00,
2013-02-04 16:23:00,24.4,21.6,29.89,ESE,113,1.0,5.0,89,0.00,,---,0.00,VWS V14.00,2013-02-04 21:23:00,
2013-02-04 16:28:00,24.3,21.5,29.89,East,88,0.0,5.0,89,0.00,,---,0.00,VWS V14.00,2013-02-04 21:28:00,
2013-02-04 16:33:00,24.3,21.5,29.90,East,87,0.0,2.0,89,0.00,,---,0.00,VWS V14.00,2013-02-04 21:33:00,
2013-02-04 16:38:00,24.2,21.4,29.89,East,95,0.0,4.0,89,0.00,,---,0.00,VWS V14.00,2013-02-04 21:38:00,
2013-02-04 16:43:00,24.2,21.7,29.89,East,94,2.0,4.0,90,0.00,,---,0.00,VWS V14.00,2013-02-04 21:43:00,
2013-02-04 16:48:00,24.2,21.7,29.89,ENE,76,0.0,4.0,90,0.00,,---,0.00,VWS V14.00,2013-02-04 21:48:00,
2013-02-04 16:53:00,24.2,21.7,29.89,ENE,76,0.0,4.0,90,0.00,,---,0.00,VWS V14.00,2013-02-04 21:53:00,
2013-02-04 16:58:00,24.2,21.7,29.89,East,89,0.0,4.0,90,0.00,,---,0.00,VWS V14.00,2013-02-04 21:58:00,
2013-02-04 17:03:00,24.1,21.6,29.89,East,89,1.0,2.0,90,0.00,,---,0.00,VWS V14.00,2013-02-04 22:03:00,
2013-02-04 17:08:00,24.0,21.5,29.89,East,81,1.0,3.0,90,0.00,,---,0.00,VWS V14.00,2013-02-04 22:08:00,
2013-02-04 17:13:00,24.0,21.5,29.89,East,83,2.0,3.0,90,0.00,,---,0.00,VWS V14.00,2013-02-04 22:13:00,
2013-02-04 17:18:00,24.0,21.5,29.89,East,82,0.0,3.0,90,0.00,,---,0.00,VWS V14.00,2013-02-04 22:18:00,
2013-02-04 17:23:00,24.0,21.5,29.89,East,84,1.0,3.0,90,0.00,,---,0.00,VWS V14.00,2013-02-04 22:23:00,
2013-02-04 17:28:00,24.0,21.5,29.89,East,82,0.0,3.0,90,0.00,,---,0.00,VWS V14.00,2013-02-04 22:28:00,
2013-02-04 17:34:00,23.9,21.4,29.89,East,82,0.0,1.0,90,0.00,,---,0.00,VWS V14.00,2013-02-04 22:34:00,
2013-02-04 17:39:00,23.9,21.4,29.89,East,82,0.0,1.0,90,0.00,,---,0.00,VWS V14.00,2013-02-04 22:39:00,
2013-02-04 17:44:00,23.9,21.4,29.88,East,82,0.0,1.0,90,0.00,,---,0.00,VWS V14.00,2013-02-04 22:44:00,
2013-02-04 17:49:00,23.9,21.4,29.88,East,82,0.0,2.0,90,0.00,,---,0.00,VWS V14.00,2013-02-04 22:49:00,
2013-02-04 17:54:00,23.9,21.4,29.88,East,86,2.0,5.0,90,0.00,,---,0.00,VWS V14.00,2013-02-04 22:54:00,
2013-02-04 17:59:00,23.8,21.3,29.88,ENE,74,1.0,5.0,90,0.00,,---,0.00,VWS V14.00,2013-02-04 22:59:00,
2013-02-04 18:04:00,23.7,21.2,29.88,East,93,2.0,2.0,90,0.00,,---,0.00,VWS V14.00,2013-02-04 23:04:00,
2013-02-04 18:09:00,23.7,21.2,29.88,East,97,0.0,4.0,90,0.00,,---,0.00,VWS V14.00,2013-02-04 23:09:00,
2013-02-04 18:14:00,23.6,21.1,29.88,ENE,75,2.0,4.0,90,0.00,,---,0.00,VWS V14.00,2013-02-04 23:14:00,
2013-02-04 18:19:00,23.6,21.1,29.88,ENE,71,0.0,4.0,90,0.00,,---,0.00,VWS V14.00,2013-02-04 23:19:00,
2013-02-04 18:24:00,23.6,21.1,29.88,ENE,70,0.0,4.0,90,0.00,,---,0.00,VWS V14.00,2013-02-04 23:24:00,
2013-02-04 18:29:00,23.6,21.1,29.89,ENE,71,0.0,4.0,90,0.00,,---,0.00,VWS V14.00,2013-02-04 23:29:00,
2013-02-04 18:34:00,23.6,21.1,29.89,ENE,70,0.0,2.0,90,0.00,,---,0.00,VWS V14.00,2013-02-04 23:34:00,
2013-02-04 18:39:00,23.6,21.1,29.89,East,81,3.0,3.0,90,0.00,,---,0.00,VWS V14.00,2013-02-04 23:39:00,
2013-02-04 18:44:00,23.5,21.0,29.89,East,82,0.0,4.0,90,0.00,,---,0.00,VWS V14.00,2013-02-04 23:44:00,
2013-02-04 18:49:00,23.5,21.0,29.88,East,81,0.0,4.0,90,0.00,,---,0.00,VWS V14.00,2013-02-04 23:49:00,
2013-02-04 18:55:00,23.5,21.0,29.89,East,80,1.0,4.0,90,0.00,,---,0.00,VWS V14.00,2013-02-04 23:55:00,
2013-02-04 19:00:00,23.5,21.3,29.89,East,80,0.0,4.0,91,0.00,,---,0.00,VWS V14.00,2013-02-05 00:00:00,
2013-02-04 19:05:00,23.5,21.0,29.89,East,80,0.0,1.0,90,0.00,,---,0.00,VWS V14.00,2013-02-05 00:05:00,
2013-02-04 19:10:00,23.5,21.0,29.90,East,84,0.0,2.0,90,0.00,,---,0.00,VWS V14.00,2013-02-05 00:10:00,
2013-02-04 19:15:00,23.5,21.3,29.90,East,85,0.0,2.0,91,0.00,,---,0.00,VWS V14.00,2013-02-05 00:15:00,
2013-02-04 19:20:00,23.5,21.3,29.91,East,84,0.0,2.0,91,0.00,,---,0.00,VWS V14.00,2013-02-05 00:20:00,
2013-02-04 19:25:00,23.5,21.3,29.91,East,85,0.0,2.0,91,0.00,,---,0.00,VWS V14.00,2013-02-05 00:25:00,
2013-02-04 19:30:00,23.5,21.0,29.92,East,85,0.0,0.0,90,0.00,,---,0.00,VWS V14.00,2013-02-05 00:30:00,
2013-02-04 19:35:00,23.4,21.2,29.92,East,84,0.0,1.0,91,0.00,,---,0.00,VWS V14.00,2013-02-05 00:35:00,
2013-02-04 19:40:00,23.4,21.2,29.93,East,84,0.0,1.0,91,0.00,,---,0.00,VWS V14.00,2013-02-05 00:40:00,
2013-02-04 19:45:00,23.4,21.2,29.92,East,85,0.0,1.0,91,0.00,,---,0.00,VWS V14.00,2013-02-05 00:45:00,
2013-02-04 19:50:00,23.3,20.8,29.93,ENE,68,1.0,2.0,90,0.00,,---,0.00,VWS V14.00,2013-02-05 00:50:00,
2013-02-04 19:55:00,23.3,20.8,29.93,ENE,69,0.0,2.0,90,0.00,,---,0.00,VWS V14.00,2013-02-05 00:55:00,
2013-02-04 20:01:00,23.3,20.8,29.93,ENE,67,0.0,2.0,90,0.00,,---,0.00,VWS V14.00,2013-02-05 01:01:00,
2013-02-04 20:06:00,23.3,21.1,29.93,ENE,67,1.0,2.0,91,0.00,,---,0.00,VWS V14.00,2013-02-05 01:06:00,
2013-02-04 20:11:00,23.3,20.8,29.94,ENE,58,0.0,2.0,90,0.00,,---,0.00,VWS V14.00,2013-02-05 01:11:00,
2013-02-04 20:16:00,23.2,20.7,29.94,ENE,59,0.0,2.0,90,0.00,,---,0.00,VWS V14.00,2013-02-05 01:16:00,
2013-02-04 20:21:00,23.2,20.7,29.94,ENE,59,0.0,2.0,90,0.00,,---,0.00,VWS V14.00,2013-02-05 01:21:00,
2013-02-04 20:26:00,23.3,20.8,29.94,ENE,58,0.0,2.0,90,0.00,,---,0.00,VWS V14.00,2013-02-05 01:26:00,
2013-02-04 20:31:00,23.3,20.8,29.94,ENE,58,0.0,0.0,90,0.00,,---,0.00,VWS V14.00,2013-02-05 01:31:00,
2013-02-04 20:36:00,23.2,20.7,29.94,ENE,58,0.0,0.0,90,0.00,,---,0.00,VWS V14.00,2013-02-05 01:36:00,
2013-02-04 20:41:00,23.3,20.8,29.95,ENE,58,0.0,0.0,90,0.00,,---,0.00,VWS V14.00,2013-02-05 01:41:00,
2013-02-04 20:46:00,23.2,20.7,29.95,ENE,58,0.0,1.0,90,0.00,,---,0.00,VWS V14.00,2013-02-05 01:46:00,
2013-02-04 20:51:00,23.3,20.8,29.94,ENE,58,0.0,1.0,90,0.00,,---,0.00,VWS V14.00,2013-02-05 01:51:00,
2013-02-04 20:56:00,23.3,20.8,29.94,ENE,58,0.0,1.0,90,0.00,,---,0.00,VWS V14.00,2013-02-05 01:56:00,
2013-02-04 21:01:00,23.2,20.7,29.95,NE,42,0.0,2.0,90,0.00,,---,0.00,VWS V14.00,2013-02-05 02:01:00,
2013-02-04 21:06:00,23.1,20.6,29.95,NE,42,0.0,2.0,90,0.00,,---,0.00,VWS V14.00,2013-02-05 02:06:00,
2013-02-04 21:11:00,23.1,20.6,29.95,NE,42,0.0,2.0,90,0.00,,---,0.00,VWS V14.00,2013-02-05 02:11:00,
2013-02-04 21:17:00,23.1,20.6,29.95,NE,43,0.0,2.0,90,0.00,,---,0.00,VWS V14.00,2013-02-05 02:17:00,
2013-02-04 21:22:00,23.1,20.6,29.95,NE,42,0.0,2.0,90,0.00,,---,0.00,VWS V14.00,2013-02-05 02:22:00,
2013-02-04 21:27:00,23.0,20.5,29.95,NE,43,0.0,2.0,90,0.00,,---,0.00,VWS V14.00,2013-02-05 02:27:00,
2013-02-04 21:32:00,23.0,20.5,29.95,NE,37,1.0,2.0,90,0.00,,---,0.00,VWS V14.00,2013-02-05 02:32:00,
2013-02-04 21:37:00,22.9,20.4,29.95,NE,37,1.0,2.0,90,0.00,,---,0.00,VWS V14.00,2013-02-05 02:37:00,
2013-02-04 21:42:00,22.9,20.4,29.95,NE,38,0.0,2.0,90,0.00,,---,0.00,VWS V14.00,2013-02-05 02:42:00,
2013-02-04 21:47:00,22.8,20.3,29.95,NE,38,0.0,2.0,90,0.00,,---,0.00,VWS V14.00,2013-02-05 02:47:00,
2013-02-04 21:52:00,22.7,20.2,29.95,NE,38,0.0,2.0,90,0.00,,---,0.00,VWS V14.00,2013-02-05 02:52:00,
2013-02-04 21:57:00,22.7,20.2,29.95,NE,37,0.0,2.0,90,0.00,,---,0.00,VWS V14.00,2013-02-05 02:57:00,
2013-02-04 22:02:00,22.7,20.2,29.95,NE,38,0.0,0.0,90,0.00,,---,0.00,VWS V14.00,2013-02-05 03:02:00,
2013-02-04 22:08:00,22.7,20.2,29.94,NE,38,0.0,0.0,90,0.00,,---,0.00,VWS V14.00,2013-02-05 03:08:00,
2013-02-04 22:13:00,22.7,20.2,29.94,NE,37,0.0,0.0,90,0.00,,---,0.00,VWS V14.00,2013-02-05 03:13:00,
2013-02-04 22:18:00,22.7,20.2,29.94,NE,37,0.0,0.0,90,0.00,,---,0.00,VWS V14.00,2013-02-05 03:18:00,
2013-02-04 22:23:00,22.7,20.2,29.94,NE,37,0.0,0.0,90,0.00,,---,0.00,VWS V14.00,2013-02-05 03:23:00,
2013-02-04 22:28:00,22.7,20.2,29.94,NE,37,0.0,0.0,90,0.00,,---,0.00,VWS V14.00,2013-02-05 03:28:00,
2013-02-04 22:33:00,22.7,20.0,29.93,NE,36,0.0,0.0,89,0.00,,---,0.00,VWS V14.00,2013-02-05 03:33:00,
2013-02-04 22:38:00,22.6,19.9,29.94,NE,36,0.0,1.0,89,0.00,,---,0.00,VWS V14.00,2013-02-05 03:38:00,
2013-02-04 22:43:00,22.6,20.1,29.94,NE,36,0.0,1.0,90,0.00,,---,0.00,VWS V14.00,2013-02-05 03:43:00,
2013-02-04 22:48:00,22.6,19.9,29.94,NE,37,0.0,1.0,89,0.00,,---,0.00,VWS V14.00,2013-02-05 03:48:00,
2013-02-04 22:53:00,22.5,19.8,29.94,NE,36,0.0,1.0,89,0.00,,---,0.00,VWS V14.00,2013-02-05 03:53:00,
2013-02-04 22:58:00,22.5,19.8,29.94,NE,37,0.0,1.0,89,0.00,,---,0.00,VWS V14.00,2013-02-05 03:58:00,
2013-02-04 23:03:00,22.4,19.7,29.94,NE,36,0.0,0.0,89,0.00,,---,0.00,VWS V14.00,2013-02-05 04:03:00,
2013-02-04 23:08:00,22.4,19.7,29.94,NE,37,0.0,0.0,89,0.00,,---,0.00,VWS V14.00,2013-02-05 04:08:00,
2013-02-04 23:14:00,22.4,19.7,29.95,NE,37,0.0,0.0,89,0.00,,---,0.00,VWS V14.00,2013-02-05 04:14:00,
2013-02-04 23:19:00,22.3,19.6,29.95,NE,37,0.0,2.0,89,0.00,,---,0.00,VWS V14.00,2013-02-05 04:19:00,
2013-02-04 23:24:00,22.3,19.6,29.96,NE,37,0.0,2.0,89,0.00,,---,0.00,VWS V14.00,2013-02-05 04:24:00,
2013-02-04 23:29:00,22.3,19.6,29.96,NE,37,1.0,2.0,89,0.00,,---,0.00,VWS V14.00,2013-02-05 04:29:00,
2013-02-04 23:34:00,22.3,19.8,29.96,NE,36,0.0,2.0,90,0.00,,---,0.00,VWS V14.00,2013-02-05 04:34:00,
2013-02-04 23:39:00,22.3,19.8,29.95,NE,36,0.0,2.0,90,0.00,,---,0.00,VWS V14.00,2013-02-05 04:39:00,
2013-02-04 23:44:00,22.3,19.8,29.95,NE,36,0.0,2.0,90,0.00,,---,0.00,VWS V14.00,2013-02-05 04:44:00,
2013-02-04 23:49:00,22.3,19.8,29.95,NE,35,0.0,2.0,90,0.00,,---,0.00,VWS V14.00,2013-02-05 04:49:00,
2013-02-04 23:54:00,22.2,19.7,29.95,NE,36,0.0,2.0,90,0.00,,---,0.00,VWS V14.00,2013-02-05 04:54:00,
2013-02-04 23:59:00,22.2,19.7,29.95,NE,36,0.0,2.0,90,0.00,,---,0.00,VWS V14.00,2013-02-05 04:59:00,